Voltar ao catálogo

SATELIOT_1

AtivoComunicaçõesSSO
NORAD 60550·PAYLOAD·🇪🇸 Spain

Lançado Aug 16, 2024 de Vandenberg Space Force Base

Loading…

Próximas Passagens (próximas 24 horas)

TLE

AtualizadoSource: Space-Track

Época: Sep 14, 2026, 10:55 UTC

1 60550U 24149CL  26257.45514024  .00000729  00000-0  66024-4 0  9993
2 60550  97.6681 331.8535 0007173 127.0955 233.0924 14.98348244113432

Acompanhe SATELIOT_1 em tempo real com AllMySat

Download on the App Store